Location: Foligno
(42.9600°N, 12.7050°E)
Time: 07:31:16
(UTC+01:00)

OTV 5 (USA 277) - Visible Passes

Search period start: 21 February 2019 00:00
Search period end: 03 March 2019 00:00
Orbit: 342 x 346 km, 54.5° (Epoch: 17 February)

Date Brightness Start Highest point End Pass type
(mag) Time Alt. Az. Time Alt. Az. Time Alt. Az.
22 Feb ? 19:13:51 10° S 19:14:44 15° SSE 19:14:44 15° SSE visible
23 Feb ? 19:36:41 10° SW 19:38:24 32° SW 19:38:24 32° SW visible
24 Feb ? 18:26:21 10° S 18:28:30 19° SE 18:30:29 11° E visible
24 Feb ? 20:00:32 10° WSW 20:01:57 23° W 20:01:57 23° W visible
25 Feb ? 18:49:07 10° SW 18:51:58 67° SE 18:53:53 19° ENE visible
25 Feb ? 20:25:06 10° WNW 20:25:20 11° WNW 20:25:20 11° WNW visible
26 Feb ? 19:12:57 10° WSW 19:15:40 37° NNW 19:17:09 21° NNE visible
27 Feb ? 19:37:29 10° WNW 19:39:34 18° NNW 19:40:19 16° N visible
28 Feb ? 18:25:22 10° WSW 18:28:06 39° NNW 18:30:51 10° NE visible
28 Feb ? 20:02:40 10° NNW 20:03:23 11° NNW 20:03:23 11° NNW visible
01 Mar ? 18:49:52 10° WNW 18:51:59 18° NNW 18:54:07 10° NNE visible
02 Mar ? 19:15:01 10° NW 19:16:04 11° NNW 19:17:07 10° N visible
